Regional Weather Roundup
Issued by NWS

Home | Current Version | Previous Version | Text Only | Print | Product List | Glossary On
Versions: 1 2 3 4 5 6 7 8 9 10 11 12 13 14 15 16 17 18 19 20 21 22 23 24 25 26 27 28 29 30 31 32 33 34 35 36 37 38 39 40 41 42 43 44 45 46 47 48 49 50
000
ASUS43 KMPX 072001
RWRMN
WEATHER ROUNDUP FOR MINNESOTA
NATIONAL WEATHER SERVICE TWIN CITIES/CHANHASSEN MN
200 PM CST SUN FEB 07 2016


NOTE: "FAIR" INDICATES FEW OR NO CLOUDS BELOW 12,000 FEET WITH NO
SIGNIFICANT WEATHER AND/OR OBSTRUCTIONS TO VISIBILITY. N/A MEANS
CURRENT SKY AND/OR WEATHER CONDITIONS ARE NOT AVAILABLE.

MNZ060>063-068>070-072100-
   Twin Cities Metro

CITY           SKY/WX    TMP DP  RH WIND       PRES   REMARKS
TWIN CITIES    CLOUDY    39  27  62 W16G23    29.61F
ST PAUL        CLOUDY    39  27  62 W14       29.62F
CRYSTAL        CLOUDY    39  28  64 W20G29    29.59F
BLAINE         CLOUDY    39  30  70 W17G24    29.59F
LAKEVILLE      CLOUDY    37  28  70 W20G29    29.62F
EDEN PRAIRIE   CLOUDY    39  27  62 W15G23    29.61F
SOUTH ST PAUL  CLOUDY    39  26  60 W10G18    29.61F
LAKE ELMO      CLOUDY    37  28  70 W12G22    29.60F
$$
MNZ001>005-007-008-013>017-022>024-027-028-072100-
   Northwest Minnesota

CITY           SKY/WX    TMP DP  RH WIND       PRES   REMARKS
BEMIDJI        LGT SNOW  22  19  88 W28G35    29.58R VSB 3/4 WCI   4
HALLOCK        SNOW      14  10  85 NW32G40   29.77R VSB 1/4 WCI  -7
ROSEAU         LGT SNOW  19  14  79 NW20G29   29.64R VSB 3/4 WCI   4
WARROAD        LGT SNOW  19  16  86 NW23G32   29.62R VSB 1   WCI   2
CROOKSTON      HVY SNOW  18  16  93 N32G41    29.76R VSB<1/4 WCI  -3
FOSSTON        LGT SNOW  18  14  86 NW21G31   29.67R VSB 3/4 WCI   1
DETROIT LAKES  SNOW      25  23  93 NW25G37   29.69R VSB 1/4 WCI   9
MOORHEAD       CLOUDY    27  19  74 NW33G44   29.75R WCI   9
PARK RAPIDS    LGT SNOW  25  21  85 NW28G40   29.59R VSB 3/4 WCI   9
MAHNOMEN       SNOW      20  18  90 NW24      29.68R VSB 1/2 WCI   3
$$
MNZ006-009>011-018-025>026-072100-
   North Central Minnesota

CITY           SKY/WX    TMP DP  RH WIND       PRES   REMARKS
BAUDETTE       MIX PCPN  23  17  78 NW24G32   29.54R WCI   7
FLAG ISLAND    LGT SNOW  21  18  86 NW28      29.57R WCI   3
INTL FALLS     LGT SNOW  29  25  85 NW15      29.46R FOG     WCI  18
WASKISH        LGT SNOW  25  21  86 NW20G25   29.55R WCI  11
LONGVILLE      LGT SNOW  27  25  93 W14G29    29.54R VSB 3/4 WCI  15
GRAND RAPIDS   CLOUDY    28  25  86 NW20G28   29.49R VSB 1   WCI  15
CRANE LAKE     CLOUDY    32  30  93 NW3       29.44R
ORR            MIX PCPN  28  27  93 NW13G18   29.42R WCI  18
COOK           LGT SNOW  30  28  93 W12G18    29.44R WCI  21
WALKER         LGT SNOW  25  22  88 W23G31    29.55R VSB 1   WCI   9
$$
MNZ012-019>021-037-072100-
   Northeast Minnesota

CITY           SKY/WX    TMP DP  RH WIND       PRES   REMARKS
DULUTH         LGT SNOW  34  31  88 W16       29.43S FOG     WCI  24
ELY            LGT SNOW  32  32 100 W6        29.40S VSB 3/4 WCI  26
HIBBING        MIX PCPN  30  26  85 NW21      29.44R WCI  17
EVELETH        LGT SNOW  32  30  93 W8        29.44R WCI  25
DULUTH HARBOR  DRIZZLE   36  34  93 SW15      29.47S
TWO HARBORS    DRIZZLE   37  34  87 W10       29.42R
SILVER BAY     RAIN      36  34  93 CALM      29.41R
GRAND MARAIS     N/A     33  31  92 NE5       29.46R WCI  29
G MARAIS ARPRT LGT SNOW  28  27  93 CALM      29.41S VSB 3/4
$$
MNZ029>031-032-039>041-046>048-054>057-064-072100-
   West Central Minnesota

CITY           SKY/WX    TMP DP  RH WIND       PRES   REMARKS
FERGUS FALLS   FLURRIES  30  27  86 N26G40    29.72R WCI  16
WHEATON        LGT SNOW  34  30  86 NW31G37   29.74R WCI  20
MORRIS         FLURRIES  34  30  86 NW33G45   29.66R WCI  19
ALEXANDRIA     FLURRIES  34  30  85 NW24G38   29.61S WCI  21
ELBOW LAKE     LGT SNOW  31  28  90 NW25G32   29.67R WCI  17
WADENA         LGT SNOW  27  21  80 NW25G37   29.61R WCI  11
GLENWOOD       CLOUDY    34  30  86 W20G28    29.62S WCI  22
APPLETON       CLOUDY    36  30  80 NW29G40   29.69S
BENSON         MIX PCPN  36  30  80 NW21G26   29.66S
ORTONVILLE     CLOUDY    34  28  80 NW25G36   29.71S WCI  21
MADISON        FLURRIES  36  30  80 NW26G35   29.72R
WILLMAR        CLOUDY    36  34  93 W21G26    29.66S FOG
$$
MNZ033>034-036-042>043-049>051-058-059-072100-
   Central Minnesota

CITY           SKY/WX    TMP DP  RH WIND       PRES   REMARKS
ST CLOUD       CLOUDY    36  29  75 W21G26    29.58F
SAUK CENTRE    CLOUDY    34  31  89 W16       29.59F WCI  24
PAYNESVILLE    CLOUDY    35  31  85 W20G28    29.62F WCI  24
AITKIN         LGT SNOW  36  30  80 W9G21     29.50R
PINE RIVER     LGT SNOW  30  23  74 NW18G25   29.59R WCI  18
BRAINERD       CLOUDY    33  26  75 NW20G36   29.54R WCI  21
STAPLES        CLOUDY    28  23  80 NW25G40   29.59R WCI  14
LONG PRAIRIE   FLURRIES  34  32  93 W13G18    29.58F WCI  25
LITTLE FALLS   FLURRIES  36  30  80 W14       29.57S
LITCHFIELD     CLOUDY    37  34  87 W15       29.63F
BUFFALO        CLOUDY    38  29  69 W16       29.61F
MAPLE LAKE     CLOUDY    38  31  74 W14G23    29.61F
$$
MNZ037-044-045-052-053-072100-
   East Central Minnesota

CITY           SKY/WX    TMP DP  RH WIND       PRES   REMARKS
PRINCETON      CLOUDY    39  30  70 W14G21    29.57F
MORA           FLURRIES  34  30  86 W9        29.56S WCI  26
CAMBRIDGE      CLOUDY    39  28  65 W12G21    29.55S
RUSH CITY      LGT RAIN  36  32  88 W8        29.56S
MOOSE LAKE     MIX PCPN  34  32  93 W13       29.47F WCI  25
HINCKLEY       CLOUDY    36  32  87 W12       29.53F
CLOQUET        LGT SNOW  34  32  93 SW8       29.45F WCI  27
MCGREGOR       CLOUDY    34  32  93 W7        29.49S WCI  28
$$
MNZ071>073-080-081-089-090-097-098-072100-
   Southwest Minnesota

CITY           SKY/WX    TMP DP  RH WIND       PRES   REMARKS
MONTEVIDEO     CLOUDY    36  30  80 N30G36    29.70F HAZE
GRANITE FALLS  CLOUDY    37  32  84 W23       29.71S
CANBY          CLOUDY    38  32  79 NW30G38   29.74R
MARSHALL       LGT RAIN  35  29  78 NW24G32   29.71F WCI  23
REDWOOD FALLS  CLOUDY    36  30  79 W20G30    29.69F
OLIVIA         CLOUDY    36  32  87 W20G26    29.66F
PIPESTONE      CLOUDY    36  25  64 NW22G30   29.75S
WINDOM         PTSUNNY   36  28  75 W24G32    29.71F
WORTHINGTON    PTSUNNY   34  27  75 W23       29.76F WCI  22
JACKSON        MOSUNNY   36  28  75 W23G33    29.73F
TRACY          FLURRIES  36  31  82 NW16G26   29.72F
SLAYTON        CLOUDY    33  31  92 W23G31    29.74S WCI  21
$$
MNZ065>067-074>077-082>085-091>093-072100-
   South Central Minnesota

CITY           SKY/WX    TMP DP  RH WIND       PRES   REMARKS
MANKATO        CLOUDY    39  27  60 W18G28    29.67F
NEW ULM        PTSUNNY   36  28  75 W24G30    29.68F
ST JAMES       PTSUNNY   37  30  75 W22G31    29.72S
FAIRMONT       CLOUDY    37  25  60 W22G31    29.72S
GLENCOE        CLOUDY    38  32  80 W18       29.64F
FARIBAULT      CLOUDY    39  27  60 W18G30    29.66F
OWATONNA       PTSUNNY   37  27  65 W20G26    29.67F
WASECA         PTSUNNY   36  30  80 W18G25    29.68F
ALBERT LEA     MOSUNNY   39  28  65 W13G22    29.68F
$$
MNZ078>079-086>088-094>096-072100-
   Southeast Minnesota

CITY           SKY/WX    TMP DP  RH WIND       PRES   REMARKS
ROCHESTER      PTSUNNY   37  26  64 W22G31    29.65F
RED WING       CLOUDY    39  25  56 W15       29.62S
STANTON        CLOUDY    39  28  63 W13G21    29.63S
DODGE CENTER   PTSUNNY   37  27  65 W21G26    29.65F
WINONA         MOSUNNY   41  27  56 W18G25    29.65F
AUSTIN         MOSUNNY   37  28  70 W16G26    29.68F
PRESTON        MOSUNNY   34  26  72 W16       29.67F WCI  24
$$
ABBREVIATIONS USED IN REMARKS
   TC - TEMPERATURES IN CELSIUS
  WCI - WIND CHILL INDEX
   HX - HEAT INDEX
  VSB - VISIBILITY
$$




USA.gov is the U.S. government's official web portal to all federal, state and local government web resources and services.